STARLINK-35298

Last updated on Mon Oct 20 2025 00:02:07 GMT+0000 (Coordinated Universal Time)

1 65842U 25221V 25292.25002315 -.01544689 00000+0 -28364-1 0 9997 2 65842 53.1602 27.7923 0001146 90.6944 264.8725 15.51574413 4439
UTC large
Height (km)
Speed (km/s)
/
Latitude / Longitude
Inclination (degrees)
Orbital Period (minutes)
Azimuth
Elevation
Range (km)
Doppler Factor

Next 0 passes for location: London (51.5072 / 0.1276)

Sorry there are no passes over London.